Charlevoix, MI

1:59 PM EDT on May 21, 2018 (GMT -0400)
Charlevoix Municipal

Weather History for KCVX - February, 2012

Change the Weather History Date:

Tuesday, February 14, 2012

  Actual Average Record
Temperature  
Mean Temperature 30 °F -  
Max Temperature 32 °F 28 °F 46 °F (2002)
Min Temperature 29 °F 19 °F -7 °F (2015)
Degree Days  
Heating Degree Days 34    
Moisture  
Dew Point 29 °F    
Average Humidity 92    
Maximum Humidity 95    
Minimum Humidity 87    
Precipitation  
Precipitation 0.00 in - - ()
Sea Level Pressure  
Sea Level Pressure 29.80 in    
Wind  
Wind Speed 7 mph (SSW)    
Max Wind Speed 10 mph    
Max Gust Speed -    
Visibility 5 miles    
Events Snow    
Averages and records for this station are not official NWS values.
T = Trace of Precipitation, MM = Missing Value Source: NWS Daily Summary

Daily Weather History Graph

Daily Weather History Graph

Search for Another Location

Airport or City:

Astronomy

Feb. 14, 2012 Rise Set
Actual Time 7:44 AM EST 6:06 PM EST
Civil Twilight 7:14 AM EST 6:36 PM EST
Nautical Twilight 6:39 AM EST 7:11 PM EST
Astronomical Twilight 6:05 AM EST 7:45 PM EST
Moon 1:35 AM EST (2/14) 11:03 AM EST (2/14)
Length of Visible Light 11h 22m
Length of Day
10h 21m
Waning Gibbous, 50% of the Moon is Illuminated
Feb 14
Waning Gibbous
Feb 14
Last Quarter
Feb 21
New
Feb 29
First Quarter
Mar 8
Full

Hourly Weather History & Observations

Time (EST) Temp. Windchill Dew Point Humidity Pressure Visibility Wind Dir Wind Speed Gust Speed Precip Events Conditions
12:34 AM 30.2 °F 23.4 °F 28.9 °F 95% 29.83 in 2.5 mi South 6.9 mph - N/A Snow Light Snow
12:55 AM 30.2 °F 24.3 °F 28.9 °F 95% 29.82 in 3.0 mi South 5.8 mph - N/A Snow Light Snow
1:34 AM 30.2 °F 23.4 °F 28.9 °F 95% 29.82 in 2.5 mi South 6.9 mph - N/A Snow Light Snow
1:55 AM 30.2 °F 23.4 °F 28.4 °F 93% 29.81 in 4.0 mi South 6.9 mph - N/A Snow Light Snow
2:14 AM 30.2 °F 22.6 °F 28.8 °F 94% 29.81 in 2.5 mi South 8.1 mph - N/A Snow Light Snow
2:35 AM 30.2 °F 23.4 °F 28.8 °F 94% 29.81 in 1.8 mi South 6.9 mph - N/A Snow Light Snow
2:55 AM 30.0 °F 23.2 °F 28.8 °F 95% 29.80 in 1.5 mi South 6.9 mph - N/A Snow Light Snow
3:14 AM 30.0 °F 22.4 °F 28.8 °F 95% 29.80 in 2.5 mi South 8.1 mph - N/A Snow Light Snow
3:35 AM 30.2 °F 22.6 °F 28.4 °F 93% 29.79 in 3.0 mi South 8.1 mph - N/A Snow Light Snow
3:55 AM 30.2 °F 22.6 °F 28.4 °F 93% 29.79 in 2.5 mi SSW 8.1 mph - N/A Snow Light Snow
4:14 AM 30.0 °F 23.2 °F 28.4 °F 94% 29.79 in 4.0 mi South 6.9 mph - N/A Snow Light Snow
4:35 AM 30.2 °F 21.9 °F 27.9 °F 91% 29.79 in 7.0 mi South 9.2 mph - N/A Snow Light Snow
4:55 AM 30.0 °F 22.4 °F 28.0 °F 92% 29.78 in 2.5 mi South 8.1 mph - N/A Snow Light Snow
5:14 AM 29.8 °F 23.9 °F 28.2 °F 94% 29.78 in 2.5 mi South 5.8 mph - N/A Snow Light Snow
5:35 AM 29.8 °F 23.9 °F 28.2 °F 94% 29.78 in 2.0 mi South 5.8 mph - N/A Snow Light Snow
5:55 AM 30.0 °F 24.1 °F 28.4 °F 94% 29.78 in 2.0 mi South 5.8 mph - N/A Snow Light Snow
6:15 AM 29.7 °F 22.0 °F 28.2 °F 94% 29.77 in 2.5 mi South 8.1 mph - N/A Snow Light Snow
6:35 AM 29.7 °F 23.7 °F 28.0 °F 94% 29.77 in 4.0 mi South 5.8 mph - N/A Snow Light Snow
6:55 AM 29.7 °F 22.0 °F 27.5 °F 92% 29.77 in 7.0 mi South 8.1 mph - N/A Snow Light Snow
7:15 AM 29.3 °F 20.2 °F 27.3 °F 92% 29.77 in 7.0 mi South 10.4 mph - N/A Snow Light Snow
7:35 AM 29.3 °F 23.2 °F 27.1 °F 92% 29.77 in 7.0 mi South 5.8 mph - N/A Snow Light Snow
7:54 AM 29.3 °F 22.3 °F 27.1 °F 92% 29.77 in 4.0 mi South 6.9 mph - N/A Snow Light Snow
8:15 AM 29.3 °F 21.5 °F 27.1 °F 92% 29.78 in 4.0 mi South 8.1 mph - N/A Snow Light Snow
8:54 AM 29.8 °F 23.0 °F 27.3 °F 90% 29.78 in 3.0 mi South 6.9 mph - N/A Snow Light Snow
9:15 AM 29.8 °F 23.9 °F 27.5 °F 91% 29.79 in 2.5 mi South 5.8 mph - N/A Snow Light Snow
9:34 AM 29.8 °F 23.9 °F 27.3 °F 90% 29.78 in 3.0 mi South 5.8 mph - N/A Snow Light Snow
9:55 AM 30.0 °F 23.2 °F 27.5 °F 90% 29.78 in 3.0 mi South 6.9 mph - N/A Snow Light Snow
10:14 AM 30.2 °F 22.6 °F 27.5 °F 90% 29.78 in 2.5 mi South 8.1 mph - N/A Snow Light Snow
10:35 AM 30.4 °F 24.5 °F 27.5 °F 89% 29.79 in 3.0 mi South 5.8 mph - N/A Snow Light Snow
10:55 AM 30.7 °F 23.3 °F 27.5 °F 88% 29.79 in 4.0 mi South 8.1 mph - N/A Snow Light Snow
11:14 AM 30.9 °F 24.3 °F 27.5 °F 87% 29.79 in 5.0 mi SSW 6.9 mph - N/A Snow Light Snow
11:35 AM 31.1 °F 24.5 °F 27.9 °F 88% 29.79 in 5.0 mi SSW 6.9 mph - N/A Snow Light Snow
11:55 AM 31.1 °F 23.1 °F 28.4 °F 90% 29.79 in 4.0 mi SSW 9.2 mph - N/A Snow Light Snow
12:14 PM 31.1 °F 24.5 °F 28.4 °F 90% 29.79 in 4.0 mi SSW 6.9 mph - N/A Snow Light Snow
12:35 PM 31.5 °F 22.9 °F 28.6 °F 89% 29.78 in 4.0 mi South 10.4 mph - N/A Snow Light Snow
12:55 PM 31.5 °F 25.8 °F 28.9 °F 90% 29.78 in 4.0 mi South 5.8 mph - N/A Snow Light Snow
1:14 PM 31.8 °F 25.4 °F 29.3 °F 90% 29.78 in 4.0 mi SSW 6.9 mph - N/A Snow Light Snow
1:35 PM 32.0 °F 26.4 °F 29.3 °F 90% 29.77 in 4.0 mi South 5.8 mph - N/A Snow Light Snow
1:55 PM 32.0 °F 25.6 °F 29.3 °F 90% 29.77 in 4.0 mi South 6.9 mph - N/A Snow Light Snow
2:15 PM 32.0 °F 25.6 °F 29.8 °F 92% 29.77 in 4.0 mi South 6.9 mph - N/A Snow Light Snow
2:35 PM 32.0 °F 25.6 °F 30.0 °F 92% 29.78 in 4.0 mi South 6.9 mph - N/A Snow Light Snow
2:55 PM 32.0 °F 26.4 °F 30.2 °F 93% 29.78 in 5.0 mi SSW 5.8 mph - N/A   Overcast
3:15 PM 32.0 °F 26.4 °F 30.0 °F 92% 29.79 in 7.0 mi SSW 5.8 mph - N/A   Overcast
3:35 PM 32.0 °F 26.4 °F 30.0 °F 92% 29.79 in 5.0 mi SSW 5.8 mph - N/A   Overcast
3:54 PM 32.0 °F 25.6 °F 30.0 °F 92% 29.80 in 7.0 mi SSW 6.9 mph - N/A   Overcast
4:15 PM 32.0 °F 25.6 °F 30.0 °F 92% 29.80 in 7.0 mi SSW 6.9 mph - N/A   Overcast
4:35 PM 32.0 °F 26.4 °F 30.0 °F 92% 29.81 in 7.0 mi SSW 5.8 mph - N/A   Overcast
4:55 PM 32.0 °F 27.5 °F 30.0 °F 92% 29.81 in 7.0 mi SSW 4.6 mph - N/A   Overcast
5:15 PM 32.0 °F 27.5 °F 30.0 °F 92% 29.81 in 7.0 mi SSW 4.6 mph - N/A   Overcast
5:35 PM 32.0 °F 27.5 °F 29.8 °F 92% 29.82 in 7.0 mi SSW 4.6 mph - N/A   Overcast
5:55 PM 32.0 °F 28.7 °F 29.8 °F 92% 29.83 in 7.0 mi SSW 3.5 mph - N/A   Overcast
6:15 PM 32.0 °F 28.7 °F 30.0 °F 92% 29.83 in 7.0 mi SSW 3.5 mph - N/A   Overcast
6:34 PM 32.0 °F 28.7 °F 30.0 °F 92% 29.84 in 10.0 mi SSW 3.5 mph - N/A   Overcast
6:55 PM 32.0 °F 28.7 °F 29.8 °F 92% 29.85 in 10.0 mi SW 3.5 mph - N/A   Overcast
7:15 PM 32.0 °F 28.7 °F 29.7 °F 91% 29.86 in 10.0 mi SSW 3.5 mph - N/A   Overcast
7:34 PM 32.0 °F 27.5 °F 29.1 °F 89% 29.86 in 10.0 mi SW 4.6 mph - N/A   Overcast
7:55 PM 32.0 °F 28.7 °F 28.9 °F 88% 29.87 in 10.0 mi SW 3.5 mph - N/A   Overcast
8:15 PM 32.0 °F 28.7 °F 28.9 °F 88% 29.87 in 7.0 mi SW 3.5 mph - N/A Snow Light Snow
8:35 PM 32.0 °F 28.7 °F 29.1 °F 89% 29.87 in 7.0 mi SSW 3.5 mph - N/A Snow Light Snow
8:55 PM 32.0 °F 28.7 °F 29.1 °F 89% 29.87 in 7.0 mi SSW 3.5 mph - N/A Snow Light Snow
9:14 PM 32.0 °F - 29.3 °F 90% 29.88 in 7.0 mi Calm Calm - N/A Snow Light Snow
9:35 PM 32.0 °F 27.5 °F 29.7 °F 91% 29.88 in 10.0 mi South 4.6 mph - N/A   Overcast
9:55 PM 32.0 °F 28.7 °F 29.5 °F 90% 29.89 in 10.0 mi SSW 3.5 mph - N/A   Overcast
10:15 PM 31.5 °F - 28.9 °F 90% 29.90 in 10.0 mi Calm Calm - N/A   Overcast
10:35 PM 30.9 °F 27.5 °F 28.8 °F 92% 29.90 in 7.0 mi SSW 3.5 mph - N/A   Mostly Cloudy
10:54 PM 31.1 °F 26.4 °F 28.9 °F 92% 29.90 in 7.0 mi SSW 4.6 mph - N/A   Overcast
11:15 PM 31.8 °F 28.5 °F 29.3 °F 90% 29.91 in 10.0 mi SSW 3.5 mph - N/A   Overcast
11:35 PM 32.0 °F 27.5 °F 29.1 °F 89% 29.92 in 10.0 mi SSW 4.6 mph - N/A   Overcast
11:55 PM 32.0 °F 28.7 °F 28.8 °F 88% 29.92 in 10.0 mi SSW 3.5 mph - N/A   Overcast